Wind_Speed
13 13 13 13 12 12 12 13 13 13 13 13 13 12 12 12 12 11 11 11 10 10 9 9 9 8 7 7 6 6 6 6 6 6 6 6 5 5 4 4 4 4 4
15 14 14 14 14 14 13 13 14 14 14 14 14 14 13 13 13 13 12 12 12 11 11 11 10 10 9 8 8 7 7 7 7 7 7 6 6 5 5 5 5 4 4
17 17 17 15 15 16 16 16 16 16 15 15 15 15 15 14 14 14 13 13 12 12 12 12 11 11 10 9 9 9 8 8 8 8 8 7 7 6 6 6 5 5 5
18 18 18 18 17 17 17 17 18 18 17 17 17 17 16 16 15 15 15 14 14 14 13 13 13 12 12 11 10 10 9 10 9 9 9 8 8 8 7 7 6 6 6
19 19 19 19 19 19 19 19 19 19 19 19 19 19 18 18 17 16 16 16 16 15 15 14 14 13 13 12 12 11 11 11 11 11 10 10 10 9 9 8 8 7 7
21 21 21 20 20 20 20 20 20 21 21 21 20 20 20 20 19 19 18 18 18 17 17 16 15 15 14 14 13 13 12 12 12 12 12 12 12 11 11 10 9 9 8
22 22 22 22 22 22 22 22 22 22 22 22 22 21 22 22 21 21 21 20 20 20 19 18 17 16 16 15 15 15 14 14 14 13 13 14 13 13 13 12 11 10 10
24 24 24 24 24 24 24 24 24 24 24 23 23 23 23 23 23 22 23 22 22 22 21 20 19 19 18 17 16 16 16 16 15 15 15 15 14 14 14 14 13 12 12
25 25 26 26 26 26 25 26 26 26 26 25 24 24 24 24 24 24 23 23 23 23 22 22 21 21 20 19 19 18 17 17 17 17 17 16 16 16 15 15 15 14 14
27 27 27 27 27 28 27 28 28 28 27 27 26 26 26 25 25 25 25 25 25 24 24 24 23 23 22 22 21 20 20 19 19 19 19 19 18 18 17 17 16 16 16
28 28 28 29 29 29 29 29 29 29 29 29 29 29 29 28 28 27 26 26 26 26 26 26 25 25 25 24 23 23 22 21 21 20 20 20 20 20 19 19 18 17 17
29 30 30 30 30 31 31 31 31 30 31 30 31 31 31 31 30 30 29 29 28 28 28 27 27 27 27 26 26 25 24 23 23 23 22 22 22 22 21 21 20 19 19
30 31 31 32 32 32 32 32 32 32 32 32 32 33 33 33 33 32 32 31 31 30 30 29 29 29 28 28 28 27 27 26 25 25 25 24 24 24 24 23 23 22 21
32 33 33 33 34 34 34 34 35 35 35 35 35 35 35 35 35 34 34 33 33 32 32 32 31 31 30 30 29 29 28 28 28 27 27 27 26 26 26 25 25 24 24
34 35 35 36 36 37 37 37 37 37 37 37 37 37 37 37 37 36 36 36 35 35 35 34 34 33 32 32 31 31 30 30 29 29 29 29 28 28 28 27 27 26 26
36 36 37 37 38 38 38 39 39 40 40 40 39 40 40 40 39 39 38 38 38 38 37 37 36 36 35 34 33 33 32 31 31 31 31 31 31 30 30 29 29 29 28
38 38 39 38 39 39 39 40 40 41 42 42 42 42 42 42 42 41 41 40 40 40 40 39 38 38 38 37 36 35 35 34 33 33 33 33 33 33 32 32 31 31 30
40 40 41 41 41 41 41 42 42 43 43 44 44 44 44 44 44 43 43 42 42 42 41 41 41 40 40 39 39 38 37 36 36 36 35 35 35 34 34 34 33 33 32
42 42 42 43 43 44 44 45 45 45 46 47 46 46 46 46 46 46 45 45 44 44 44 43 42 43 42 42 41 41 40 40 38 38 38 37 37 36 36 36 35 35 34
43 43 43 44 45 45 46 47 47 48 48 48 48 48 48 48 48 48 47 47 47 46 46 45 45 45 44 44 44 43 42 42 41 40 40 40 39 39 38 38 37 36 36
43 44 45 45 46 46 47 48 48 48 48 48 49 49 50 50 49 50 50 50 49 49 48 48 48 47 47 47 46 46 45 44 44 43 42 42 42 41 41 40 39 39 39
43 43 45 46 46 46 47 48 49 50 49 49 49 50 51 51 51 50 51 50 51 51 52 51 50 49 49 49 48 49 48 47 46 46 45 44 43 43 43 43 42 41 41
43 43 44 45 46 46 47 48 49 50 50 50 49 49 50 50 50 50 51 52 52 52 53 53 53 52 51 51 51 50 50 50 49 48 48 47 46 45 44 44 44 44 43
44 45 45 46 46 46 47 48 48 49 49 49 50 49 49 50 50 51 51 52 53 53 53 54 54 54 53 53 54 53 53 52 51 51 50 49 48 48 47 46 45 45 45
44 45 46 47 47 47 48 48 48 48 48 49 49 50 50 50 50 51 51 51 52 53 53 54 55 55 55 55 55 54 54 54 54 54 52 51 50 49 48 49 48 48 47
45 45 46 47 47 47 48 48 49 49 48 49 50 50 50 51 51 51 52 52 52 53 54 55 56 56 56 57 56 56 55 54 54 55 54 53 52 51 50 50 50 50 48
Wind_Direction
249 248 249 249 248 248 248 247 247 246 246 247 249 248 248 247 245 242 240 239 236 235 232 230 230 229 227 223 222 220 215 208 207 199 192 188 187 185 179 175 174 169 166
250 250 251 249 249 250 249 249 248 248 247 247 249 248 248 248 247 245 243 242 239 235 233 233 232 233 232 231 227 223 220 214 211 208 203 198 196 194 191 189 186 185 184
251 251 252 250 252 252 251 251 251 250 249 248 248 248 248 248 247 246 244 242 240 237 235 235 234 234 235 234 232 229 227 222 218 215 211 209 208 206 203 203 202 205 208
253 251 251 251 252 252 252 251 252 252 251 250 249 250 250 249 249 247 246 244 243 241 237 236 235 235 236 236 235 234 232 229 225 221 217 216 218 218 216 216 218 219 221
254 252 252 253 253 253 253 254 253 253 253 252 250 249 250 250 250 247 248 247 245 243 241 238 236 237 238 238 237 235 234 231 228 226 224 223 224 225 223 225 228 228 230
255 254 253 253 254 254 255 255 255 255 255 253 251 251 250 250 251 250 248 248 246 245 242 240 239 239 239 239 239 237 235 233 231 229 229 228 228 228 227 227 229 232 236
255 255 254 254 255 255 255 256 256 255 256 255 253 253 252 252 251 251 249 249 247 246 245 243 242 240 239 240 241 240 239 237 235 233 233 232 231 232 232 231 232 235 239
255 256 255 255 256 255 255 256 257 256 256 256 255 254 254 254 253 252 250 249 248 247 247 246 245 243 241 241 241 242 241 240 237 236 236 235 234 234 236 235 235 238 241
257 256 256 255 255 256 256 257 256 256 257 257 255 254 254 254 254 253 252 250 248 247 246 246 246 246 244 244 243 243 243 243 241 238 238 238 237 237 239 239 239 241 244
257 257 258 257 256 257 258 258 257 257 257 257 256 255 254 253 253 252 252 251 249 248 247 246 246 246 246 246 245 245 245 244 244 242 240 240 241 241 242 244 243 244 247
258 258 259 259 257 257 258 259 259 258 258 257 256 255 255 254 253 252 251 251 249 248 248 248 247 246 246 246 246 246 246 246 246 244 243 242 242 243 244 245 247 247 249
259 259 259 260 260 259 258 259 259 259 258 258 257 255 255 254 253 253 251 251 250 248 247 247 248 248 248 247 247 247 247 247 246 245 244 244 244 245 245 247 249 250 251
260 259 259 259 259 259 259 259 260 259 259 259 258 256 255 255 254 254 252 251 251 250 248 247 247 248 248 248 248 248 248 248 247 246 246 246 246 246 247 248 250 252 253
261 260 260 260 261 261 260 260 260 260 260 260 259 257 256 256 256 255 254 253 251 249 249 248 248 248 248 249 249 249 249 249 249 248 247 247 247 248 249 250 251 253 255
261 261 261 261 261 261 261 260 260 261 260 259 258 258 257 256 256 255 254 253 252 250 249 249 248 248 248 248 249 249 249 250 250 249 248 248 249 250 251 251 253 254 255
262 261 261 262 261 262 262 261 261 261 260 259 258 258 257 256 255 255 254 253 252 251 250 250 248 248 249 249 249 249 249 249 250 250 250 249 250 250 251 252 253 255 256
263 262 262 263 263 262 262 262 262 261 260 260 259 258 257 256 255 254 254 254 252 251 250 250 250 249 249 249 250 251 250 250 250 251 251 251 251 251 252 252 253 255 256
264 263 263 263 263 263 262 262 262 261 260 260 259 257 257 257 256 255 254 254 253 252 251 251 251 251 250 250 250 251 252 251 251 252 252 252 252 252 253 253 254 255 256
265 265 264 263 263 263 262 262 263 262 261 259 259 258 257 257 256 255 254 253 253 253 252 251 251 251 251 251 250 251 251 251 252 252 252 252 252 253 253 254 254 255 256
266 265 265 265 265 264 263 263 263 262 261 261 259 259 258 257 256 255 255 253 252 252 252 252 251 251 251 251 251 251 251 251 252 252 253 252 251 252 253 253 254 255 255
268 266 265 265 266 265 264 263 263 263 262 261 260 259 258 257 256 256 255 254 253 252 251 252 251 251 251 251 251 251 251 251 251 252 253 253 253 252 253 253 254 255 255
269 268 266 266 266 265 264 264 264 264 263 261 261 260 259 257 257 256 255 254 253 253 252 251 251 251 251 251 251 251 250 251 252 252 253 254 254 253 253 253 253 254 255
270 270 268 267 266 265 265 264 263 263 263 262 261 260 259 258 256 256 256 256 254 254 253 252 252 252 252 251 252 252 251 251 252 252 253 254 254 254 254 254 253 254 255
272 271 269 267 267 267 266 264 263 263 263 263 261 260 258 257 257 257 257 256 255 254 253 253 253 252 252 252 252 252 252 252 252 252 252 253 255 255 254 254 254 253 254
273 272 269 268 267 267 266 264 264 263 263 262 261 261 259 258 258 258 258 257 256 255 254 253 253 253 253 252 252 253 252 252 252 252 252 253 254 254 254 255 255 254 254
273 272 271 269 268 267 266 265 264 263 262 262 261 261 260 259 259 259 258 258 257 256 255 255 254 253 253 253 253 253 253 253 253 253 252 253 253 253 253 254 255 255 255
Height
5839 5839 5839 5840 5840 5841 5841 5842 5842 5843 5844 5844 5845 5845 5846 5846 5847 5848 5848 5849 5849 5850 5850 5851 5851 5852 5853 5853 5854 5855 5855 5856 5857 5858 5858 5859 5860 5861 5861 5862 5863 5863 5864
5836 5837 5837 5838 5838 5839 5839 5840 5840 5841 5841 5842 5843 5843 5844 5844 5845 5846 5847 5847 5848 5848 5849 5850 5850 5851 5852 5852 5853 5854 5855 5855 5856 5857 5858 5859 5860 5860 5861 5862 5862 5863 5864
5834 5834 5835 5835 5836 5836 5837 5837 5838 5839 5839 5840 5840 5841 5842 5842 5843 5844 5845 5845 5846 5847 5847 5848 5849 5850 5851 5851 5852 5853 5854 5854 5855 5856 5857 5858 5859 5860 5861 5861 5862 5863 5863
5831 5831 5832 5832 5833 5833 5834 5834 5835 5836 5836 5837 5838 5838 5839 5840 5841 5842 5843 5843 5844 5845 5845 5846 5847 5848 5849 5850 5851 5851 5852 5853 5854 5855 5856 5858 5858 5859 5860 5861 5861 5862 5863
5827 5828 5829 5829 5830 5830 5831 5831 5832 5833 5833 5834 5835 5836 5836 5837 5838 5839 5840 5841 5842 5842 5843 5844 5845 5846 5847 5848 5849 5850 5851 5852 5853 5854 5855 5856 5857 5858 5859 5859 5860 5861 5862
5824 5824 5825 5826 5826 5827 5827 5828 5829 5829 5830 5831 5831 5832 5833 5834 5835 5836 5837 5837 5838 5840 5841 5842 5843 5844 5845 5846 5847 5848 5849 5850 5851 5852 5853 5854 5855 5856 5857 5858 5859 5859 5860
5820 5820 5821 5822 5822 5823 5824 5824 5825 5826 5826 5827 5828 5829 5829 5830 5831 5832 5833 5834 5835 5836 5837 5839 5840 5841 5842 5843 5844 5845 5846 5847 5849 5850 5851 5852 5853 5854 5855 5856 5857 5858 5858
5815 5816 5817 5817 5818 5818 5819 5820 5821 5822 5822 5823 5824 5825 5825 5826 5827 5828 5829 5830 5831 5833 5834 5835 5836 5838 5839 5840 5841 5842 5843 5845 5846 5847 5848 5850 5851 5852 5852 5854 5855 5855 5856
5810 5811 5812 5812 5813 5813 5814 5815 5816 5817 5818 5819 5819 5820 5821 5822 5823 5824 5825 5826 5827 5829 5830 5831 5833 5834 5835 5837 5838 5839 5840 5842 5843 5844 5846 5847 5848 5849 5850 5851 5852 5853 5854
5805 5805 5806 5807 5808 5809 5809 5810 5811 5811 5812 5813 5814 5815 5816 5817 5818 5819 5820 5822 5823 5824 5826 5827 5828 5830 5831 5833 5834 5835 5837 5838 5839 5841 5842 5844 5845 5846 5847 5848 5849 5850 5851
5799 5800 5800 5801 5802 5803 5804 5804 5805 5806 5807 5807 5808 5809 5810 5811 5812 5814 5815 5816 5818 5819 5821 5822 5824 5825 5826 5828 5830 5831 5833 5834 5836 5837 5838 5840 5841 5842 5843 5844 5845 5847 5848
5792 5793 5794 5795 5796 5796 5797 5798 5799 5800 5801 5801 5802 5803 5804 5805 5806 5807 5809 5811 5812 5814 5815 5817 5818 5820 5821 5823 5825 5826 5828 5830 5831 5833 5834 5836 5837 5838 5839 5840 5841 5843 5844
5785 5786 5787 5788 5788 5789 5790 5791 5792 5793 5794 5794 5795 5796 5797 5798 5800 5801 5802 5804 5806 5807 5809 5811 5812 5814 5816 5817 5819 5821 5823 5824 5826 5828 5830 5831 5832 5834 5835 5836 5837 5839 5840
5777 5778 5779 5780 5781 5781 5782 5783 5784 5785 5786 5787 5788 5788 5790 5791 5792 5794 5795 5797 5799 5801 5802 5804 5806 5808 5809 5811 5813 5815 5817 5819 5821 5822 5824 5826 5827 5829 5830 5831 5833 5834 5835
5769 5770 5771 5771 5772 5773 5774 5775 5776 5776 5777 5778 5779 5780 5781 5783 5784 5786 5787 5789 5791 5793 5795 5797 5799 5801 5803 5805 5806 5808 5811 5813 5814 5816 5818 5820 5822 5823 5825 5826 5827 5829 5830
5760 5761 5762 5762 5763 5764 5764 5765 5766 5767 5768 5768 5769 5770 5772 5773 5775 5777 5778 5780 5782 5784 5787 5789 5790 5793 5795 5797 5799 5801 5804 5806 5808 5810 5812 5814 5815 5817 5819 5820 5822 5823 5824
5750 5751 5752 5753 5753 5754 5755 5755 5756 5757 5757 5758 5759 5760 5762 5763 5765 5767 5769 5771 5773 5775 5777 5780 5782 5784 5787 5789 5791 5793 5796 5798 5800 5802 5804 5807 5808 5810 5812 5813 5815 5817 5818
5740 5741 5742 5742 5743 5744 5744 5744 5745 5746 5746 5747 5748 5750 5751 5753 5755 5757 5759 5761 5763 5765 5768 5770 5773 5775 5778 5780 5783 5785 5787 5790 5792 5794 5797 5799 5801 5803 5805 5806 5808 5810 5811
5730 5730 5731 5731 5732 5732 5733 5733 5734 5735 5735 5736 5737 5739 5740 5742 5743 5745 5748 5750 5752 5755 5757 5760 5763 5765 5768 5771 5773 5776 5778 5781 5783 5785 5788 5790 5793 5795 5797 5798 5800 5802 5804
5718 5719 5719 5720 5720 5720 5721 5722 5722 5723 5723 5724 5725 5727 5728 5730 5732 5734 5736 5738 5741 5744 5746 5749 5752 5754 5757 5760 5762 5765 5768 5771 5774 5776 5778 5781 5783 5786 5788 5790 5792 5794 5796
5706 5707 5707 5708 5708 5708 5709 5709 5710 5710 5710 5711 5712 5714 5715 5717 5719 5721 5724 5726 5729 5731 5734 5737 5740 5743 5746 5749 5752 5755 5758 5760 5764 5766 5768 5771 5773 5776 5778 5781 5783 5785 5787
5695 5695 5695 5695 5696 5696 5696 5696 5697 5697 5698 5698 5699 5700 5702 5704 5706 5708 5711 5713 5716 5719 5721 5724 5728 5731 5734 5737 5740 5743 5747 5750 5753 5756 5758 5760 5763 5766 5768 5771 5774 5776 5778
5683 5683 5682 5682 5683 5683 5683 5683 5683 5684 5685 5685 5686 5687 5689 5690 5692 5695 5697 5700 5702 5705 5708 5711 5714 5718 5721 5724 5727 5730 5734 5738 5741 5745 5747 5750 5753 5755 5758 5760 5763 5765 5768
5671 5670 5670 5670 5670 5669 5669 5670 5670 5671 5672 5672 5673 5674 5676 5677 5679 5681 5683 5686 5688 5691 5694 5697 5700 5704 5707 5711 5714 5717 5721 5725 5728 5732 5735 5738 5741 5744 5747 5749 5752 5755 5757
5658 5657 5657 5656 5656 5656 5656 5656 5656 5657 5658 5659 5660 5661 5663 5664 5665 5667 5670 5672 5674 5677 5680 5683 5686 5689 5693 5696 5700 5703 5707 5711 5714 5718 5722 5726 5729 5732 5735 5737 5740 5743 5746
5645 5644 5643 5643 5643 5642 5642 5642 5643 5643 5644 5645 5646 5648 5649 5650 5652 5654 5656 5658 5660 5662 5665 5668 5671 5674 5678 5681 5685 5689 5692 5696 5700 5704 5708 5712 5716 5719 5722 5725 5728 5731 5734